User: anonymous   Login
Location: Caltech
(34.1382°N, 118.1253°W)
Time: 12:29:46
(UTC-08:00)
Language:

Meteor 1-11 Rocket - Orbit

View from above orbital plane
View from above orbital plane
View from above satellite
View from above satellite

Ground track
Ground track

The orbit data is extracted from the following two-line orbital elements,

1 05918U 72022B   15025.35560350  .00000180  00000-0  10152-3 0  3531
2 05918 081.2366 091.1673 0057937 261.8264 146.8488 14.05746078195228
Epoch (UTC): 25 January 2015 08:32:04
Eccentricity: 0.0057937
inclination: 81.2366°
perigee height: 832 km
apogee height: 916 km
right ascension of ascending node: 91.1673°
argument of perigee: 261.8264°
revolutions per day: 14.05746078
mean anomaly at epoch: 146.8488°
orbit number at epoch: 19522

The dashed part of the orbit path shows where the satellite is in the earth's shadow,  

DLR